Theta_e
348 348 348 349 349 349 350 351 350 348 348 349 351 351 350 350 350 350 349 349 351 354 360 361 359 358 359 358 359 359 358 357 355 352 350 349 349 350 349 350 349 352 352 351 355 353 357 362 361 361 365 362 364 362 362 360 356 350 351 350 348 347 346
348 348 347 348 350 350 352 353 352 350 351 350 350 352 351 350 350 349 350 350 350 353 357 359 361 358 357 358 356 359 360 358 356 355 350 349 353 354 352 351 350 353 356 354 354 357 360 362 362 363 363 363 362 363 359 357 356 353 351 350 348 346 347
348 348 348 348 349 351 352 353 352 351 351 350 350 350 351 351 351 351 350 349 351 352 355 354 361 356 356 358 356 356 357 355 355 352 349 346 350 351 353 355 353 352 354 357 358 354 360 362 366 364 363 361 358 359 357 356 354 350 350 350 348 345 347
349 349 348 349 350 352 353 353 353 352 352 352 351 350 351 352 351 351 351 352 350 350 352 353 357 354 354 354 354 354 354 355 353 350 348 348 348 348 350 353 355 355 354 353 356 357 357 360 363 365 361 362 360 357 355 353 351 349 349 349 346 347 347
349 350 350 349 349 350 352 353 353 352 352 353 353 352 351 351 352 352 351 352 351 350 351 352 353 354 352 352 351 350 351 351 351 351 351 352 351 350 348 350 352 353 354 356 359 359 363 364 362 363 361 362 358 357 355 352 351 349 349 349 347 345 342
347 349 350 350 350 350 351 353 353 352 352 351 351 352 351 351 351 352 352 353 352 351 352 356 355 355 354 352 351 349 351 351 354 356 354 353 353 347 347 349 351 353 353 354 356 359 361 362 361 361 361 357 355 354 353 351 349 349 348 348 348 344 343
346 350 351 352 351 351 351 352 353 353 353 352 352 353 353 351 351 351 351 352 352 350 349 353 356 357 357 356 354 351 349 349 351 353 355 356 353 348 345 347 351 353 354 355 356 360 360 361 364 363 360 357 356 354 355 353 350 349 349 350 348 347 349
348 350 351 354 352 351 351 352 352 352 353 352 351 351 352 351 351 350 352 351 352 353 351 352 355 358 361 360 356 352 351 351 352 357 361 358 350 347 344 346 350 354 355 354 358 360 360 362 362 362 360 358 356 355 354 354 352 348 348 347 346 346 347
351 352 351 352 352 351 352 353 353 352 352 352 351 350 351 351 350 350 352 351 352 352 354 354 359 363 363 359 358 356 353 357 359 360 360 354 348 346 344 345 350 354 354 355 357 361 361 362 360 362 361 358 356 356 355 353 349 348 347 347 348 346 347
353 353 353 353 356 356 356 356 356 356 352 352 353 352 351 351 351 350 351 351 352 354 357 359 361 362 362 359 356 355 357 361 360 361 359 352 348 349 346 345 349 354 356 356 357 357 360 361 361 363 363 358 357 355 355 352 350 348 349 348 348 348 347
355 355 355 352 354 355 356 356 355 354 352 353 354 353 354 352 352 351 352 351 352 356 360 361 363 363 362 360 358 356 357 360 362 361 358 350 349 350 348 348 351 358 362 361 358 357 361 362 363 364 362 356 356 355 354 353 351 351 350 348 349 347 345
355 354 355 356 354 355 355 357 357 356 355 353 353 354 356 356 352 351 352 354 356 358 362 363 362 363 361 360 358 358 356 360 365 361 361 356 354 350 350 354 356 361 365 367 362 364 363 364 362 360 359 357 356 355 356 355 354 352 350 348 347 346 346
352 354 355 355 355 356 358 356 354 355 356 356 356 357 353 354 353 351 354 357 357 362 366 367 364 364 362 361 359 360 359 361 365 363 364 362 356 355 357 360 363 367 367 368 366 368 364 366 363 360 358 359 358 355 357 354 352 351 350 348 348 347 347
349 353 354 355 355 355 353 353 353 354 355 356 358 357 354 352 353 354 357 358 359 365 367 365 365 366 364 362 361 363 361 363 365 366 366 366 366 363 361 368 370 370 371 370 370 368 367 367 361 360 360 359 359 358 357 355 353 352 351 349 349 348 347
347 350 353 352 353 353 352 350 352 354 353 356 359 356 352 356 356 357 358 358 363 365 367 368 366 366 365 363 362 364 366 364 366 368 370 370 370 368 370 372 373 372 373 372 369 364 365 366 362 360 360 361 359 358 355 353 352 351 349 349 348 348 346
344 348 350 350 352 352 352 351 352 354 355 358 358 357 355 352 355 356 356 356 359 364 366 368 367 365 365 364 363 365 367 366 367 369 370 370 370 371 373 372 372 373 373 371 368 366 367 367 363 362 361 359 358 356 353 351 350 348 346 346 347 347 345
346 348 350 353 352 352 352 352 352 353 354 357 357 356 355 352 355 357 357 361 364 363 362 362 363 364 364 364 365 366 368 367 367 369 370 371 372 372 371 371 371 372 371 369 368 366 367 365 362 361 360 357 355 353 350 349 347 345 343 345 344 346 347
341 344 346 350 352 352 350 350 350 351 351 353 354 353 353 352 352 352 354 359 360 359 359 358 357 362 363 365 366 368 367 366 367 367 368 370 371 371 372 371 371 371 371 368 368 367 365 362 361 360 358 355 354 352 349 349 347 339 341 343 344 343 346
343 346 345 348 350 351 349 350 351 352 351 353 351 350 352 351 350 350 354 352 353 357 355 356 354 358 361 363 366 368 367 366 366 365 366 368 369 372 371 371 369 369 368 367 368 367 364 364 361 359 357 355 352 349 348 348 342 338 340 340 340 342 343
345 348 351 350 350 352 351 351 352 352 352 354 353 351 351 352 352 354 354 353 353 351 355 349 352 356 359 363 366 367 367 367 366 365 365 366 368 370 370 368 368 368 369 369 367 365 363 362 362 359 357 356 353 350 348 350 342 337 338 338 338 340 341
350 349 349 353 352 350 351 352 353 353 351 353 352 351 350 349 351 352 351 351 350 355 355 352 352 356 359 363 365 367 367 366 366 365 366 367 368 369 368 367 368 369 369 367 365 365 364 362 361 360 358 356 353 350 348 350 337 335 336 335 335 337 340
350 351 351 351 353 353 351 351 353 352 352 355 353 350 349 348 350 351 350 349 350 352 353 352 353 355 359 361 363 365 366 366 366 367 367 368 368 367 366 366 367 368 367 366 365 366 365 363 362 359 357 356 354 351 350 347 333 334 333 332 333 337 341
349 349 351 354 354 353 354 354 353 354 356 354 352 350 348 350 350 348 347 348 347 349 352 353 352 353 356 357 360 363 366 367 367 367 366 366 366 366 366 367 367 367 367 365 365 364 363 362 361 360 358 356 355 353 352 347 335 330 329 328 330 337 344
350 349 349 349 353 353 354 354 353 354 353 354 353 352 351 351 348 346 347 347 346 347 348 349 350 350 353 357 359 359 362 364 364 364 364 366 366 367 368 368 368 368 367 365 364 363 363 362 359 359 358 356 354 354 353 351 338 327 325 325 328 338 345
349 346 348 350 349 350 350 351 352 352 354 354 351 351 352 350 349 347 346 346 347 346 346 346 347 349 351 355 359 361 361 362 362 362 363 364 366 367 367 369 369 369 368 365 366 365 363 360 359 357 358 357 356 352 354 353 339 323 323 324 326 337 344
348 350 351 351 351 351 352 354 352 350 352 351 350 351 350 351 349 346 346 346 345 343 343 343 346 348 350 354 357 356 358 361 362 362 361 359 361 362 357 361 369 368 366 365 364 362 360 358 358 357 356 356 356 352 354 353 344 334 321 322 324 331 341
348 348 349 350 350 353 351 351 351 350 350 352 353 351 351 349 348 345 345 344 343 343 345 345 348 350 349 351 353 355 356 358 359 360 359 359 360 361 361 362 364 366 364 363 362 360 359 357 358 357 356 356 356 353 354 353 346 337 320 320 323 328 339
348 348 349 351 352 352 351 349 350 350 351 353 354 352 352 349 348 347 346 344 342 343 347 347 346 348 350 349 350 352 352 354 357 359 360 360 360 357 361 364 365 364 363 362 360 359 358 357 356 355 354 353 353 353 354 350 345 341 323 320 320 323 330
348 347 348 350 349 350 349 350 347 347 349 352 352 353 352 351 350 349 347 344 344 346 347 348 349 348 347 348 347 353 354 356 358 358 357 357 359 356 360 363 362 362 363 362 360 358 356 354 353 353 351 351 350 353 354 351 345 335 334 322 319 319 324
350 351 351 350 350 349 348 348 349 350 350 351 352 353 352 351 350 350 349 348 350 348 347 346 347 348 348 351 352 354 356 357 356 354 354 354 356 359 360 360 357 357 359 359 358 357 355 353 352 351 350 349 348 350 350 350 347 336 333 329 319 318 320
349 349 351 349 349 350 349 349 349 349 350 351 352 354 353 352 350 349 348 351 354 350 346 344 345 346 346 349 350 351 352 354 355 355 354 353 350 351 354 356 357 355 356 356 355 355 355 353 352 350 349 348 347 348 348 348 346 341 335 329 325 320 319
350 351 351 351 350 349 349 350 350 349 349 351 353 352 353 352 352 350 351 354 355 354 351 349 348 348 347 347 349 352 354 354 352 352 350 350 353 352 351 354 354 351 352 352 354 353 351 351 350 349 349 347 346 345 346 348 349 346 339 332 330 327 322
349 350 351 350 351 351 350 348 348 348 348 348 350 352 354 353 351 349 353 353 354 354 354 352 349 347 347 347 347 346 347 346 348 348 347 349 351 352 355 358 353 351 349 348 349 349 347 347 347 347 347 345 342 340 340 341 342 340 337 334 335 334 333
349 349 352 353 353 353 353 352 351 350 349 349 351 352 353 353 353 354 353 355 356 356 355 352 350 349 349 349 349 348 350 353 353 349 351 354 352 352 356 356 354 351 350 348 348 346 346 347 346 347 347 345 344 340 337 336 337 338 337 335 334 334 334
347 348 350 351 352 353 352 354 354 354 352 351 352 352 353 353 354 355 355 354 354 354 354 356 355 352 350 353 357 357 356 354 353 351 352 357 359 358 356 355 356 357 356 356 354 350 350 350 348 344 344 347 346 342 336 335 335 338 331 337 328 333 333
345 347 350 351 352 353 352 352 351 351 351 351 353 353 353 353 353 354 355 356 354 354 352 351 352 352 351 352 353 354 354 355 356 356 353 354 355 355 358 341 327 340 358 355 346 337 331 331 349 349 349 346 342 340 339 338 338 328 320 318 316 317 319
345 346 348 350 349 350 351 351 351 351 351 352 354 353 353 353 354 354 354 355 356 353 350 348 348 349 350 352 352 353 355 356 357 360 360 359 358 358 356 354 342 310 311 322 340 327 317 314 319 322 328 341 342 340 330 330 321 315 314 313 312 312 312
343 344 345 347 348 350 351 350 350 349 349 350 351 352 354 353 354 354 354 356 355 354 350 348 346 346 348 350 353 355 356 356 358 360 359 359 359 359 355 351 346 339 316 309 317 317 312 313 312 313 316 318 327 340 339 321 313 312 311 311 311 310 309
Wind_Speed
13 14 14 14 15 15 16 16 17 15 16 16 16 17 17 15 15 13 13 13 13 13 12 12 12 10 11 10 11 10 10 9 8 8 7 7 7 6 6 6 7 4 3 4 0 1 2 2 2 3 3 3 4 5 5 5 4 4 4 3 4 3 4
12 12 13 14 15 15 16 17 18 16 16 16 16 17 16 17 16 15 14 14 14 13 12 12 12 11 11 11 10 10 10 10 9 6 7 6 6 6 6 6 5 4 3 4 2 1 1 0 2 2 2 3 5 5 5 5 4 4 4 3 3 3 3
11 11 12 13 14 15 16 16 18 17 18 16 16 16 17 17 17 17 15 14 15 14 13 13 12 13 12 11 10 10 11 10 10 10 9 7 8 9 8 6 5 4 5 1 2 2 3 1 1 1 1 3 5 5 5 5 4 4 4 4 3 4 3
10 11 12 13 13 14 15 16 18 18 17 17 16 17 18 18 17 16 16 15 16 15 15 13 12 13 12 11 12 11 11 11 11 10 10 8 7 9 8 8 6 6 5 6 4 2 1 1 2 3 3 3 4 5 5 5 5 5 5 4 4 4 3
8 9 10 11 12 12 13 14 15 17 18 18 19 19 18 17 17 16 16 16 16 16 15 14 12 12 11 11 9 9 11 12 12 10 9 7 7 7 8 9 8 8 6 5 3 3 2 3 2 3 3 4 5 5 5 5 6 5 5 4 4 4 5
8 8 9 10 11 12 13 14 16 17 18 18 19 18 18 19 17 19 17 16 15 15 14 12 13 11 11 11 10 10 10 11 10 9 8 8 7 8 9 9 8 8 7 7 5 4 3 3 2 2 3 4 4 5 5 5 6 5 5 4 3 3 4
6 7 8 8 9 10 12 13 14 16 17 17 17 16 16 17 19 18 16 16 16 17 16 14 12 11 10 9 10 11 11 11 11 11 9 9 9 9 9 9 9 8 7 6 5 4 4 3 2 3 3 3 3 4 4 4 4 5 5 4 4 4 5
5 6 7 7 8 8 10 11 13 14 15 16 16 16 17 16 16 18 17 16 15 15 14 13 12 10 9 9 9 11 11 10 10 10 9 11 11 10 10 10 8 7 6 6 5 5 4 3 3 3 4 4 4 4 5 5 5 5 5 5 5 6 4
4 3 3 6 7 6 7 9 11 12 14 15 17 16 16 16 16 16 17 17 15 14 13 12 10 9 9 9 9 10 10 8 8 9 11 12 10 10 10 10 9 7 7 7 6 6 5 4 4 4 4 4 4 5 5 5 5 5 5 5 5 5 5
3 2 2 3 3 3 4 6 8 9 12 14 15 16 16 15 15 16 16 16 15 15 13 11 9 10 10 10 11 11 9 9 9 10 11 11 10 10 10 10 9 7 7 6 6 6 5 4 4 5 5 5 6 5 5 6 5 5 6 6 5 5 5
3 2 1 3 4 5 5 6 7 9 11 12 12 14 15 15 14 15 15 15 14 13 13 11 9 9 10 10 11 10 10 11 10 11 11 12 10 10 10 9 8 6 6 6 6 5 5 5 5 6 6 6 7 6 6 6 6 6 6 5 5 5 5
3 2 1 0 2 4 5 5 6 7 9 10 12 13 13 13 15 15 12 14 13 13 12 11 10 10 10 9 10 10 12 11 10 11 11 11 10 11 10 8 8 6 6 6 6 5 5 5 5 5 7 6 6 6 6 6 6 6 6 6 6 5 5
3 2 1 0 1 1 3 5 7 8 8 9 11 8 9 14 14 14 14 13 13 11 11 10 9 9 9 10 10 10 11 11 10 10 10 10 10 10 8 8 8 8 7 6 7 7 6 5 6 5 6 6 6 6 7 6 6 6 6 6 6 5 5
3 2 2 1 0 1 3 4 5 6 8 9 8 8 12 14 13 12 10 8 9 10 10 8 9 9 9 9 9 9 10 10 10 10 9 9 9 9 8 8 9 8 7 7 7 7 7 6 6 5 6 6 6 6 7 7 6 6 6 6 6 5 5
4 3 2 1 0 1 2 3 4 5 6 7 8 3 7 9 6 8 9 8 9 9 9 9 9 10 9 9 10 10 9 9 8 8 9 9 9 9 9 9 8 8 7 7 7 6 7 6 6 6 6 6 6 7 6 6 6 5 6 6 6 5 5
6 4 3 2 1 2 2 3 4 5 5 5 6 5 5 2 4 8 9 9 9 8 6 6 8 9 9 10 10 9 8 8 8 8 9 9 9 9 8 8 8 8 7 7 7 6 5 6 5 6 6 7 7 7 6 5 4 6 9 7 6 6 5
6 5 4 2 2 2 3 3 4 4 4 5 4 3 4 6 4 2 6 5 7 8 9 8 8 8 9 9 9 8 8 8 8 7 8 9 9 9 9 9 8 7 7 7 7 7 6 6 6 6 6 7 7 7 6 5 5 11 8 6 7 5 5
9 8 7 4 2 4 4 5 4 5 5 5 6 5 4 4 4 3 4 3 5 6 7 7 0 7 8 8 8 8 9 8 8 8 8 8 8 9 9 9 8 8 8 7 8 6 6 6 6 6 6 6 6 6 6 5 12 12 10 8 6 5 5
11 10 8 7 4 3 4 4 5 5 5 4 4 7 6 4 4 4 2 2 2 2 6 9 6 7 8 7 8 8 8 8 8 8 8 8 8 8 8 9 9 8 8 8 8 7 7 7 7 7 6 6 7 6 6 6 13 13 12 9 7 5 6
10 11 9 7 6 3 5 4 4 3 2 4 5 7 7 4 4 4 2 2 2 3 2 10 8 9 8 8 8 8 8 8 8 8 8 8 8 9 9 9 9 9 8 7 7 7 7 7 8 7 7 7 7 6 6 7 13 14 12 11 8 7 7
12 12 11 7 6 7 6 5 4 3 1 3 5 6 7 5 5 2 4 3 1 1 5 5 6 7 8 8 8 7 8 8 8 9 9 9 9 9 9 9 9 9 8 8 8 8 8 8 8 7 8 8 8 7 7 7 15 14 13 11 10 8 8
12 12 11 10 7 5 6 6 5 4 1 4 5 7 8 6 5 4 4 4 3 3 2 6 6 8 6 7 7 7 7 8 8 8 8 9 9 9 9 9 9 9 8 7 7 6 6 6 7 8 9 9 9 8 7 9 16 14 13 12 10 10 6
12 13 12 10 8 7 6 5 4 3 2 4 4 7 9 6 4 4 4 4 2 2 4 4 4 7 4 4 5 5 5 6 7 7 8 8 9 10 10 10 9 8 7 8 7 7 7 7 7 8 9 10 9 9 8 9 13 14 14 13 12 10 5
12 13 13 11 8 6 5 5 2 2 1 4 5 5 8 8 5 3 4 4 3 4 5 6 4 6 6 3 3 4 3 4 4 4 5 6 7 8 8 9 8 9 8 8 8 8 8 7 7 7 8 10 10 10 9 9 12 15 14 14 14 10 6
14 13 13 12 10 9 7 6 5 3 3 4 4 4 5 8 8 6 5 3 3 4 5 6 5 3 3 5 5 4 3 2 2 2 4 5 4 4 4 6 7 7 6 6 6 6 7 7 7 8 8 9 10 11 10 9 11 14 15 15 14 10 5
14 14 14 12 10 8 6 3 1 1 4 5 5 7 6 8 8 7 6 6 4 3 4 5 6 8 9 8 7 6 5 5 4 3 2 2 1 2 3 6 4 4 5 6 5 6 7 8 7 9 8 9 9 9 9 9 11 12 15 14 14 10 6
13 13 13 12 10 9 6 5 5 4 3 3 6 7 8 8 7 7 4 3 4 5 4 5 3 2 4 4 4 4 4 5 4 3 2 1 2 3 5 6 5 4 5 5 4 5 5 7 6 7 7 8 8 8 9 8 10 12 14 14 13 11 7
11 12 11 10 10 9 7 6 4 3 3 3 5 7 8 9 6 5 5 5 5 6 5 5 4 1 3 4 2 2 2 2 2 1 2 3 3 4 4 3 3 4 5 5 5 6 5 5 5 6 6 7 8 8 9 9 11 12 13 14 13 11 9
11 10 10 10 10 10 8 6 6 6 5 3 3 3 6 9 8 7 8 8 7 6 7 6 6 6 3 5 3 3 1 2 2 2 4 4 4 4 4 1 2 3 5 6 7 8 8 8 7 7 7 7 8 7 8 9 9 15 13 13 13 12 11
10 8 9 10 10 9 8 7 6 5 5 6 3 2 3 6 7 7 7 9 7 8 7 7 6 5 3 4 6 5 2 2 3 3 3 3 4 3 5 3 4 4 3 5 7 6 8 8 8 8 8 8 8 8 8 9 8 12 15 12 13 13 11
9 9 9 9 9 9 8 8 8 7 7 5 4 3 3 4 7 8 9 8 4 5 7 8 9 9 10 9 6 5 4 5 3 3 3 5 5 6 6 5 4 4 5 6 8 9 7 8 9 9 8 8 7 7 6 6 5 7 10 13 12 12 11
8 8 8 8 8 8 7 7 7 8 8 8 7 5 4 3 4 7 8 8 7 7 6 6 8 9 10 8 7 4 4 5 5 5 4 7 6 7 6 5 5 5 5 7 8 8 8 7 7 8 8 8 7 6 6 5 2 2 6 9 10 9 9
8 7 7 8 7 6 6 7 7 7 7 8 8 7 5 4 2 3 5 5 5 6 7 7 8 7 7 9 10 10 10 12 10 9 11 13 11 10 7 6 5 5 6 6 7 6 7 8 7 8 9 10 11 12 13 14 13 12 11 10 9 8 8
9 8 7 6 6 6 5 6 8 8 8 7 7 7 7 6 6 6 6 4 4 5 6 8 9 9 8 9 7 9 11 11 10 10 7 8 7 4 3 4 6 8 8 10 11 10 8 8 8 9 9 10 10 11 10 9 8 8 10 11 11 10 10
7 8 8 9 8 7 7 8 9 10 10 9 7 7 6 6 5 4 5 6 6 4 5 5 7 8 8 7 6 6 8 8 8 7 7 6 6 6 6 8 9 11 11 12 11 12 13 13 12 13 13 11 11 10 11 10 12 13 14 14 15 14 12
6 7 8 8 7 7 8 8 9 10 10 8 8 8 7 7 7 5 4 4 5 6 5 4 3 5 5 4 4 5 4 5 7 7 7 7 9 10 10 3 3 3 8 9 11 13 14 12 12 11 9 12 13 14 14 15 15 17 21 20 18 17 16
7 7 7 9 9 10 9 8 8 9 9 9 9 9 9 7 7 7 6 5 5 4 5 5 5 4 5 6 6 7 7 7 8 9 9 9 9 10 11 9 5 4 5 7 5 10 12 14 13 12 17 13 10 12 16 13 18 22 21 20 19 18 17
7 7 7 6 8 9 10 10 9 8 8 8 9 9 10 9 8 8 7 6 5 5 4 4 5 4 4 5 5 5 6 7 7 6 7 8 8 7 6 6 6 2 7 14 5 5 12 17 16 17 19 12 10 10 7 15 20 21 21 20 20 18 17
Wind_Direction
189 189 191 191 193 196 193 193 197 199 203 204 205 205 204 201 200 199 198 198 195 191 188 187 193 194 198 204 207 208 213 213 211 206 206 209 220 219 202 213 202 211 237 238 352 21 41 358 338 30 71 78 107 110 110 116 119 108 97 81 72 79 83
191 191 191 191 192 195 193 191 194 200 202 205 205 206 208 205 201 203 202 198 200 196 193 189 189 195 201 207 206 204 211 215 216 215 213 202 199 219 229 213 227 183 219 263 262 146 324 271 345 70 104 133 110 117 126 122 110 109 100 103 98 107 112
191 194 195 193 191 194 192 191 192 197 202 204 205 206 207 208 204 204 202 200 201 200 198 194 189 199 205 204 209 206 206 212 207 209 216 208 195 208 209 230 221 225 225 180 274 258 184 191 87 116 130 112 119 122 118 118 115 105 110 119 121 99 97
187 197 198 198 197 194 196 194 192 194 199 201 202 206 206 209 211 204 206 203 202 203 203 199 194 204 205 204 206 206 207 208 213 211 212 216 219 202 205 205 213 230 206 223 204 204 356 335 160 129 152 135 128 134 128 122 123 117 114 114 107 116 110
179 194 199 199 200 197 196 198 197 196 197 199 202 205 210 212 213 214 206 207 207 206 204 201 198 205 207 205 207 208 209 208 207 213 213 207 209 229 214 209 208 214 222 227 186 207 211 241 178 165 147 144 150 140 144 137 122 127 121 124 125 133 120
170 186 196 202 204 202 199 199 200 199 200 203 204 203 207 211 213 215 210 206 207 208 203 197 201 200 207 208 209 208 207 205 207 206 206 204 212 215 218 215 216 212 208 217 215 200 195 236 217 163 168 166 159 150 147 142 132 128 127 129 130 129 115
158 176 186 200 211 207 204 203 204 203 201 204 204 203 206 207 208 210 211 205 204 207 205 196 200 198 202 208 211 212 210 202 196 198 194 195 203 224 224 220 220 211 217 208 213 192 209 220 188 185 179 166 155 153 131 129 126 120 123 126 123 98 100
150 169 182 189 210 212 212 209 208 208 204 204 205 203 203 208 209 208 207 202 202 201 206 199 197 194 192 199 210 212 209 209 189 192 187 197 206 215 223 218 219 218 212 219 195 210 210 208 203 181 163 171 162 145 136 129 132 139 130 133 128 127 131
129 147 173 177 203 207 215 213 216 213 209 206 206 206 203 206 211 209 204 201 196 198 197 196 189 183 186 195 199 207 206 197 187 185 193 204 208 213 214 216 218 214 215 217 200 198 218 197 208 159 170 169 149 153 147 150 146 135 134 127 136 133 131
77 113 157 177 181 215 209 226 224 228 215 212 210 208 205 204 210 209 207 201 195 192 185 185 181 182 189 196 201 202 195 185 189 192 198 207 209 211 214 213 212 208 216 221 210 203 200 208 181 158 163 170 160 162 150 150 147 135 131 137 138 136 142
70 105 162 188 175 195 200 215 222 223 224 218 218 214 206 204 205 212 209 201 195 186 180 180 180 183 189 196 201 196 190 189 192 196 206 211 205 210 210 214 216 197 200 213 228 218 191 187 168 163 173 183 174 164 157 148 138 133 137 139 139 146 152
79 68 75 245 204 185 207 212 226 234 235 223 217 222 210 207 201 208 212 212 194 182 178 178 182 182 187 190 194 195 195 192 196 201 203 211 206 208 207 203 212 188 187 195 220 219 209 186 194 180 185 180 177 162 145 139 139 140 142 143 148 149 145
58 63 50 35 225 240 197 219 231 238 235 227 221 225 249 206 207 205 204 206 198 182 172 174 177 178 181 185 192 191 198 193 196 198 197 198 204 206 205 194 187 188 189 189 198 201 213 200 199 184 180 169 171 156 142 140 141 142 145 146 147 147 149
108 97 92 87 180 234 254 257 260 248 235 228 228 199 227 225 204 201 202 197 190 181 172 172 175 175 178 181 187 193 196 197 195 194 193 191 198 201 193 181 183 181 180 180 191 200 204 201 193 179 168 164 157 139 137 139 143 147 147 151 152 155 159
59 65 69 84 214 278 277 273 272 264 241 228 220 195 290 257 223 213 205 192 190 182 179 169 174 178 179 181 187 193 195 197 195 193 190 190 189 190 184 180 178 175 174 178 189 204 202 196 192 177 163 155 149 140 142 148 152 157 156 155 160 162 168
35 38 35 14 347 295 280 291 281 272 249 222 213 187 132 80 265 231 207 194 191 164 164 165 179 178 180 186 191 191 191 193 194 189 188 189 187 184 181 178 178 175 173 176 186 193 187 178 182 171 163 159 151 148 148 154 162 145 150 155 161 171 168
31 26 37 8 331 304 315 303 292 282 249 227 207 156 153 181 223 239 217 179 142 144 154 179 191 188 185 189 188 186 183 185 190 189 191 190 188 182 179 177 175 173 175 177 179 177 169 172 169 171 170 166 159 156 161 164 144 138 134 140 162 171 170
24 12 26 17 356 335 318 309 290 272 256 234 225 218 175 190 190 244 234 188 157 139 134 116 276 210 192 189 184 180 179 182 185 192 194 193 190 183 179 176 175 175 177 179 176 172 167 173 174 172 168 164 160 165 167 157 123 136 134 144 162 185 177
13 14 4 9 10 336 330 326 310 293 271 244 219 228 212 179 199 208 233 170 163 115 137 124 183 226 198 187 186 183 181 181 185 190 194 195 192 186 181 179 175 177 180 183 181 173 176 178 174 173 168 162 161 166 168 142 137 143 148 152 168 191 215
21 2 8 -0 3 6 348 338 317 295 287 244 210 224 219 192 193 198 162 224 100 256 254 151 182 227 206 185 184 184 182 182 186 190 192 192 190 188 185 182 181 182 181 176 175 179 182 181 174 168 165 162 165 163 175 140 148 150 154 159 165 179 234
12 12 351 3 2 5 4 0 321 328 326 225 202 202 196 184 190 121 54 5 221 279 172 166 214 219 201 183 181 180 181 183 188 192 191 191 188 184 183 183 184 182 178 180 181 181 181 176 175 169 165 163 166 168 175 146 150 153 157 159 164 170 221
8 6 6 4 24 21 2 10 354 336 54 167 185 195 185 177 153 107 90 37 13 37 130 170 214 232 199 175 173 182 188 190 191 191 188 185 181 180 182 183 184 180 179 181 181 178 170 168 172 166 166 167 170 173 179 143 154 155 157 157 159 175 208
17 24 23 35 44 36 36 20 356 37 128 162 181 181 184 174 148 120 91 76 36 51 46 54 303 263 207 162 163 181 190 196 193 191 190 189 188 187 182 179 178 181 180 182 179 172 172 171 171 169 169 169 174 175 172 148 161 157 156 156 161 182 201
26 34 37 40 58 60 50 41 14 84 131 146 160 170 178 168 157 165 128 98 46 356 28 44 350 315 308 118 135 156 177 191 203 213 211 206 207 198 189 183 180 184 181 188 180 178 174 168 166 168 172 173 176 179 170 159 159 159 157 160 171 191 183
33 36 30 38 37 42 36 39 11 23 107 131 146 154 152 170 170 174 161 132 65 29 42 46 11 326 326 43 61 79 86 122 146 221 238 246 251 250 228 198 187 182 176 189 186 175 166 170 168 168 173 178 180 173 173 158 155 162 161 166 176 194 179
36 34 36 39 40 44 59 50 88 23 97 140 135 156 161 141 148 146 124 121 115 83 73 60 11 355 358 16 35 39 39 55 43 39 25 18 128 165 220 258 240 191 180 180 188 180 174 175 173 171 175 175 177 170 179 157 159 167 167 171 177 202 189
43 38 39 40 42 37 42 38 22 49 89 101 150 167 170 176 159 159 147 140 140 163 155 144 133 2 328 339 13 44 46 51 48 27 65 116 216 209 194 190 220 215 207 187 191 180 171 176 168 170 169 172 173 171 179 169 158 165 173 173 179 193 213
44 43 41 44 37 41 49 41 46 70 101 130 181 180 180 180 181 189 183 184 199 184 147 149 139 192 309 307 264 124 60 44 46 12 8 10 321 267 225 180 188 209 212 195 178 172 169 168 184 186 178 192 187 173 176 162 157 161 176 175 178 186 219
46 42 40 34 37 31 40 51 35 29 44 111 135 195 199 188 195 200 202 207 202 165 160 149 143 152 208 248 303 326 170 133 101 25 19 346 317 287 271 135 179 223 222 210 183 179 175 179 207 207 204 196 197 175 175 176 167 162 170 175 178 186 205
50 47 46 47 40 36 30 43 40 39 15 8 38 152 230 235 230 229 234 232 193 174 162 154 157 153 220 247 188 182 73 63 126 90 136 204 245 246 272 205 170 206 221 240 233 207 184 182 197 206 205 200 196 189 191 187 174 166 167 168 182 184 197
35 39 42 40 39 33 35 33 35 34 33 31 25 8 298 237 228 235 242 246 237 219 186 175 180 181 194 209 216 196 173 192 170 179 214 226 223 227 230 220 199 202 207 236 236 230 209 189 185 191 196 196 193 192 191 188 181 171 167 168 177 185 187
40 33 31 34 31 29 28 31 36 23 23 34 27 37 44 15 319 279 257 255 228 207 216 205 191 188 193 207 208 186 181 192 201 186 222 253 248 244 230 197 170 199 224 247 244 234 223 199 183 188 184 178 157 132 125 116 105 181 183 179 176 182 184
40 29 18 23 25 8 19 22 37 39 28 27 23 16 20 33 54 312 295 278 288 257 220 197 198 208 203 201 195 185 194 207 216 200 198 218 221 219 207 168 182 197 188 211 228 214 214 210 188 183 172 160 162 162 164 167 172 175 176 182 179 183 173
22 26 25 26 29 9 5 6 21 31 29 30 19 19 11 12 29 17 357 326 283 252 236 239 223 208 199 209 204 186 193 201 210 211 209 202 219 224 197 182 192 201 203 196 192 179 182 195 181 179 177 180 173 173 172 166 157 162 170 178 179 178 172
22 15 8 12 23 20 10 357 2 7 11 15 17 15 14 8 11 27 21 347 338 336 290 247 226 226 219 220 218 192 177 189 189 202 212 217 220 231 215 210 211 210 217 211 195 188 178 186 185 193 191 175 178 166 168 173 180 187 174 178 180 171 169
28 13 5 359 358 14 17 14 2 359 0 1 358 359 0 7 5 2 4 19 352 336 331 304 250 221 222 224 223 226 209 205 206 195 200 208 221 224 223 113 90 219 216 207 196 190 194 191 197 198 191 191 186 176 171 188 188 163 163 166 173 172 169
20 12 4 359 355 357 5 10 9 1 4 352 346 347 348 351 357 0 359 354 357 345 326 314 303 275 236 218 226 232 230 213 206 204 204 207 214 216 218 210 169 84 28 345 177 175 185 201 207 232 248 235 177 184 203 163 143 155 160 161 170 171 170
16 5 358 2 1 353 350 353 355 357 360 352 342 339 335 339 347 357 0 356 352 340 330 313 300 290 285 264 247 230 227 237 230 221 212 217 224 232 230 227 230 255 38 35 28 179 187 199 200 213 219 238 258 183 156 149 152 151 157 163 168 170 169